When you browse on this site, cookies collect data to enhance your experience and personalize the content and advertising you see.
Visit our Privacy Policy to learn more. By continuing to use the site, you agree to this use of cookies and data.
  • In Lithuania
  • List of Countries
  • For 7 days
  • Water Temperature
  • Satellite Maps
  • Weather Map
  • Weather Widgets
  • user-avatar
    Login

    Hourly Weather Port-au-Princ

    Today, 21 November, Wednesday

    Time Temperature Precipitation Wind Pressure Humidity
    00:00 +24°C° 0 mm 1 mps 737 mmHg 80%
    01:00 +24°C° 0 mm 1 mps 736 mmHg 80%
    02:00 +24°C° 0 mm 2 mps 736 mmHg 81%
    03:00 +24°C° 0 mm 2 mps 736 mmHg 81%
    04:00 +24°C° 0 mm 2 mps 736 mmHg 81%
    05:00 +24°C° 0 mm 2 mps 737 mmHg 79%
    06:00 +25°C° 0 mm 2 mps 737 mmHg 77%
    07:00 +25°C° 0 mm 2 mps 737 mmHg 76%
    08:00 +27°C° 0 mm 2 mps 738 mmHg 66%
    09:00 +29°C° 0 mm 2 mps 738 mmHg 57%
    10:00 +32°C° 0 mm 1 mps 738 mmHg 48%
    11:00 +32°C° 0 mm 2 mps 738 mmHg 45%
    12:00 +34°C° 0 mm 2 mps 737 mmHg 43%
    13:00 +34°C° 0 mm 2 mps 737 mmHg 41%
    14:00 +34°C° 0 mm 2 mps 736 mmHg 45%
    15:00 +32°C° 0 mm 2 mps 736 mmHg 49%
    16:00 +31°C° 0 mm 2 mps 736 mmHg 52%
    17:00 +29°C° 0 mm 2 mps 736 mmHg 61%
    18:00 +27°C° 0 mm 2 mps 736 mmHg 69%
    19:00 +25°C° 0 mm 1 mps 736 mmHg 78%
    20:00 +25°C° 0.1 mm 1 mps 736 mmHg 80%
    21:00 +25°C° 0.1 mm 1 mps 736 mmHg 82%
    22:00 +24°C° 0.1 mm 1 mps 736 mmHg 84%
    23:00 +24°C° 0 mm 1 mps 736 mmHg 84%

    Tomorrow, 22 November, Thursday

    Time Temperature Precipitation Wind Pressure Humidity
    00:00 +24°C° 0 mm 1 mps 736 mmHg 84%
    01:00 +24°C° 0 mm 1 mps 736 mmHg 84%
    02:00 +24°C° 0 mm 1 mps 736 mmHg 83%
    03:00 +24°C° 0 mm 1 mps 736 mmHg 83%
    04:00 +24°C° 0 mm 1 mps 736 mmHg 83%
    05:00 +24°C° 0 mm 1 mps 736 mmHg 81%
    06:00 +25°C° 0 mm 1 mps 736 mmHg 79%
    07:00 +25°C° 0 mm 1 mps 737 mmHg 77%
    08:00 +27°C° 0 mm 1 mps 737 mmHg 69%
    09:00 +29°C° 0 mm 1 mps 737 mmHg 60%
    10:00 +31°C° 0 mm 1 mps 737 mmHg 52%
    11:00 +32°C° 0 mm 1 mps 737 mmHg 50%
    12:00 +32°C° 0 mm 2 mps 736 mmHg 49%
    13:00 +34°C° 0 mm 2 mps 736 mmHg 48%
    14:00 +32°C° 0 mm 2 mps 735 mmHg 51%
    15:00 +31°C° 0 mm 2 mps 735 mmHg 55%
    16:00 +30°C° 0 mm 2 mps 735 mmHg 58%
    17:00 +29°C° 0.1 mm 2 mps 735 mmHg 65%
    18:00 +27°C° 0.1 mm 1 mps 735 mmHg 72%
    19:00 +26°C° 0.1 mm 1 mps 736 mmHg 79%
    20:00 +25°C° 0 mm 1 mps 736 mmHg 81%
    21:00 +25°C° 0 mm 1 mps 736 mmHg 82%
    22:00 +24°C° 0 mm 1 mps 736 mmHg 83%
    23:00 +24°C° 0 mm 1 mps 736 mmHg 83%

    Day after tomorrow, 23 November, Friday

    Time Temperature Precipitation Wind Pressure Humidity
    00:00 +24°C° 0 mm 1 mps 736 mmHg 84%
    01:00 +24°C° 0 mm 1 mps 735 mmHg 84%
    02:00 +24°C° 0 mm 1 mps 735 mmHg 83%
    03:00 +24°C° 0 mm 1 mps 735 mmHg 82%
    04:00 +23°C° 0 mm 1 mps 735 mmHg 81%
    05:00 +24°C° 0 mm 1 mps 735 mmHg 78%
    06:00 +24°C° 0 mm 1 mps 735 mmHg 76%
    07:00 +25°C° 0 mm 1 mps 736 mmHg 73%
    08:00 +27°C° 0 mm 1 mps 736 mmHg 66%
    09:00 +29°C° 0 mm 1 mps 736 mmHg 58%
    10:00 +31°C° 0 mm 1 mps 736 mmHg 51%
    11:00 +31°C° 0 mm 2 mps 736 mmHg 50%
    12:00 +32°C° 0 mm 2 mps 735 mmHg 48%
    13:00 +34°C° 0 mm 2 mps 735 mmHg 47%
    14:00 +32°C° 0.2 mm 2 mps 734 mmHg 51%
    15:00 +31°C° 0.2 mm 2 mps 734 mmHg 55%
    16:00 +30°C° 0.2 mm 2 mps 734 mmHg 59%
    17:00 +28°C° 0.3 mm 2 mps 734 mmHg 66%
    18:00 +27°C° 0.3 mm 1 mps 734 mmHg 73%
    19:00 +25°C° 0.3 mm 1 mps 735 mmHg 80%
    20:00 +25°C° 0 mm 1 mps 735 mmHg 82%
    21:00 +24°C° 0 mm 1 mps 735 mmHg 84%
    22:00 +22°C° 0 mm 0 mps 735 mmHg 85%
    23:00 +22°C° 0 mm 0 mps 735 mmHg 86%

    24 November, Saturday

    Time Temperature Precipitation Wind Pressure Humidity
    00:00 +22°C° 0 mm 0 mps 735 mmHg 87%
    01:00 +24°C° 0 mm 1 mps 735 mmHg 88%
    02:00 +24°C° 0 mm 1 mps 735 mmHg 87%
    03:00 +23°C° 0 mm 1 mps 734 mmHg 87%
    04:00 +23°C° 0 mm 1 mps 734 mmHg 87%
    05:00 +24°C° 0 mm 1 mps 735 mmHg 84%
    06:00 +24°C° 0 mm 1 mps 735 mmHg 81%
    07:00 +25°C° 0 mm 1 mps 736 mmHg 79%
    08:00 +27°C° 0 mm 1 mps 736 mmHg 70%
    09:00 +29°C° 0 mm 1 mps 736 mmHg 60%
    10:00 +31°C° 0 mm 1 mps 737 mmHg 51%
    11:00 +31°C° 0 mm 1 mps 736 mmHg 49%
    12:00 +32°C° 0 mm 2 mps 735 mmHg 47%
    13:00 +34°C° 0 mm 2 mps 735 mmHg 45%
    14:00 +32°C° 0.1 mm 2 mps 734 mmHg 48%
    15:00 +31°C° 0.1 mm 2 mps 734 mmHg 51%
    16:00 +30°C° 0.1 mm 2 mps 734 mmHg 54%
    17:00 +29°C° 0.2 mm 1 mps 734 mmHg 62%
    18:00 +27°C° 0.2 mm 1 mps 735 mmHg 70%
    19:00 +25°C° 0.2 mm 1 mps 735 mmHg 78%
    20:00 +25°C° 0 mm 1 mps 735 mmHg 80%
    21:00 +24°C° 0 mm 1 mps 736 mmHg 81%
    22:00 +24°C° 0 mm 1 mps 736 mmHg 82%
    23:00 +24°C° 0 mm 1 mps 735 mmHg 82%

    25 November, Sunday

    Time Temperature Precipitation Wind Pressure Humidity
    00:00 +24°C° 0 mm 1 mps 735 mmHg 83%
    01:00 +23°C° 0 mm 1 mps 735 mmHg 83%
    02:00 +23°C° 0 mm 1 mps 735 mmHg 82%
    03:00 +23°C° 0 mm 1 mps 735 mmHg 82%
    04:00 +23°C° 0 mm 2 mps 735 mmHg 81%
    05:00 +23°C° 0 mm 2 mps 735 mmHg 78%
    06:00 +24°C° 0 mm 2 mps 735 mmHg 74%
    07:00 +24°C° 0 mm 2 mps 736 mmHg 70%
    08:00 +27°C° 0 mm 2 mps 736 mmHg 62%
    09:00 +29°C° 0 mm 1 mps 737 mmHg 53%
    10:00 +31°C° 0 mm 1 mps 737 mmHg 44%
    11:00 +32°C° 0 mm 1 mps 736 mmHg 42%
    12:00 +34°C° 0 mm 2 mps 736 mmHg 41%
    13:00 +34°C° 0 mm 2 mps 735 mmHg 40%
    14:00 +32°C° 0 mm 2 mps 735 mmHg 44%
    15:00 +32°C° 0 mm 2 mps 735 mmHg 48%
    16:00 +31°C° 0 mm 3 mps 735 mmHg 52%
    17:00 +29°C° 0 mm 2 mps 735 mmHg 60%
    18:00 +27°C° 0 mm 2 mps 735 mmHg 68%
    19:00 +25°C° 0 mm 1 mps 736 mmHg 77%
    20:00 +25°C° 0 mm 1 mps 736 mmHg 79%
    21:00 +25°C° 0 mm 1 mps 736 mmHg 80%
    22:00 +24°C° 0 mm 1 mps 736 mmHg 82%
    23:00 +24°C° 0 mm 1 mps 736 mmHg 82%

    26 November, Monday

    Time Temperature Precipitation Wind Pressure Humidity
    00:00 +24°C° 0 mm 1 mps 736 mmHg 82%
    01:00 +24°C° 0 mm 1 mps 735 mmHg 82%
    02:00 +24°C° 0 mm 1 mps 735 mmHg 83%
    03:00 +23°C° 0 mm 1 mps 735 mmHg 83%
    04:00 +23°C° 0 mm 2 mps 735 mmHg 83%
    05:00 +24°C° 0 mm 2 mps 736 mmHg 81%
    06:00 +24°C° 0 mm 2 mps 736 mmHg 79%
    07:00 +25°C° 0 mm 2 mps 736 mmHg 78%
    08:00 +27°C° 0 mm 1 mps 737 mmHg 69%
    09:00 +29°C° 0 mm 1 mps 737 mmHg 60%
    10:00 +32°C° 0 mm 1 mps 737 mmHg 51%
    11:00 +32°C° 0 mm 1 mps 737 mmHg 49%
    12:00 +34°C° 0 mm 2 mps 736 mmHg 48%
    13:00 +34°C° 0 mm 2 mps 735 mmHg 46%
    14:00 +33°C° 0 mm 3 mps 735 mmHg 50%
    15:00 +31°C° 0 mm 3 mps 735 mmHg 54%
    16:00 +30°C° 0 mm 3 mps 735 mmHg 59%
    17:00 +29°C° 0.1 mm 2 mps 735 mmHg 67%
    18:00 +27°C° 0.1 mm 2 mps 735 mmHg 74%
    19:00 +26°C° 0.1 mm 1 mps 736 mmHg 82%
    20:00 +25°C° 0 mm 1 mps 736 mmHg 84%
    21:00 +25°C° 0 mm 1 mps 736 mmHg 86%
    22:00 +25°C° 0 mm 1 mps 736 mmHg 88%
    23:00 +24°C° 0 mm 1 mps 735 mmHg 88%
    Show more